This demonstration page uses our WeatherBlox Daily Observations layout. Learn more.

41.55636, -103.73856

Hourly Observations for May 5, 2015

Temp ( °F °C ) Dew Point ( °F °C ) Humidity (%) Winds ( mph kmh ) Pressure ( in mb ) Visibility ( mi km ) Precip ( " mm )
12:53 am 00:53 Cloudy 48 9 43 6 82 82 SE 8 13 30.06 1018 10 16.09344 0 0
1:53 am 01:53 Cloudy 48 9 43 6 82 82 ESE 9 15 30.03 1017 10 16.09344 0 0
2:53 am 02:53 Cloudy 48 9 45 7 87 87 ESE 9 15 30.03 1017 10 16.09344 0 0
3:03 am 03:03 Cloudy 48 9 45 7 87 87 ESE 8 13 30.03 1017 10 16.09344 0 0
3:06 am 03:06 Cloudy 48 9 45 7 87 87 ESE 8 13 30.03 1017 10 16.09344 0 0
3:53 am 03:53 Cloudy 48 9 45 7 87 87 ESE 9 15 30 1016 9 14.484096 0 0
4:07 am 04:07 Cloudy 48 9 45 7 87 87 SSE 9 15 30 1016 9 14.484096 0 0
4:16 am 04:16 Cloudy 48 9 45 7 87 87 SSE 9 15 30 1016 9 14.484096 0 0
4:53 am 04:53 Cloudy 46 8 45 7 93 93 SE 8 13 30.03 1017 8 12.874752 0 0
5:53 am 05:53 Cloudy 46 8 45 7 93 93 ESE 10 17 30.03 1017 7 11.265408 0 0
6:10 am 06:10 Cloudy with Mist and Fog 48 9 45 7 87 87 ESE 10 17 29.97 1015 5 8.04672 0 0
6:34 am 06:34 Cloudy with Mist and Fog 48 9 45 7 87 87 ESE 8 13 29.97 1015 5 8.04672 0 0
6:43 am 06:43 Cloudy with Mist and Fog 48 9 45 7 87 87 ESE 10 17 29.97 1015 5 8.04672 0 0
6:53 am 06:53 Cloudy with Mist and Fog 48 9 45 7 87 87 ESE 9 15 29.97 1015 5 8.04672 0 0
7:53 am 07:53 Cloudy with Mist and Fog 48 9 46 8 94 94 SSE 12 19 29.97 1015 5 8.04672 0 0
8:53 am 08:53 Cloudy 52 11 46 8 82 82 SSE 8 13 29.94 1014 9 14.484096 0 0
9:01 am 09:01 Cloudy 52 11 46 8 82 82 SE 8 13 29.94 1014 8 12.874752 0 0
9:53 am 09:53 Cloudy 55 13 46 8 72 72 SE 6 9 29.88 1012 10 16.09344 0 0
10:53 am 10:53 Cloudy 59 15 48 9 68 68 SSE 6 9 29.85 1011 10 16.09344 0 0
11:53 am 11:53 Cloudy 61 16 48 9 63 63 ESE 14 22 29.83 1010 10 16.09344 0 0
12:03 pm 12:03 Cloudy 61 16 48 9 63 63 ESE 13 20 29.8 1009 10 16.09344 0 0
12:53 pm 12:53 Cloudy 59 15 48 9 68 68 ESE 15 24 29.83 1010 10 16.09344 0 0
1:53 pm 13:53 Cloudy 61 16 48 9 63 63 ESE 20 31 29.8 1009 10 16.09344 0 0
2:53 pm 14:53 Cloudy 59 15 50 10 72 72 SE 17 28 29.83 1010 10 16.09344 0 0
3:53 pm 15:53 Cloudy 57 14 50 10 77 77 SE 16 26 29.8 1009 10 16.09344 0 0
4:53 pm 16:53 Cloudy 55 13 52 11 88 88 SE 15 24 29.8 1009 10 16.09344 0.001 0.001
5:26 pm 17:26 Cloudy 57 14 52 11 82 82 ESE 17 28 29.77 1008 10 16.09344 0 0
5:37 pm 17:37 Cloudy 57 14 52 11 82 82 SE 17 28 29.77 1008 10 16.09344 0 0
5:44 pm 17:44 Cloudy 57 14 52 11 82 82 ESE 16 26 29.77 1008 10 16.09344 0 0
5:53 pm 17:53 Mostly Cloudy 57 14 52 11 82 82 ESE 16 26 29.77 1008 10 16.09344 0 0
6:16 pm 18:16 Cloudy with Light Rain 55 13 54 12 94 94 ESE 18 30 29.77 1008 7 11.265408 0 0
6:53 pm 18:53 Cloudy with Light Rain 55 13 54 12 94 94 ESE 15 24 29.74 1007 7 11.265408 0.001 0.001
7:14 pm 19:14 Cloudy with Light Rain 55 13 54 12 94 94 ESE 14 22 29.74 1007 9 14.484096 0 0
7:53 pm 19:53 Cloudy with Light Rain 54 12 54 12 100 100 ESE 13 20 29.77 1008 6 9.656064 0.02 0.508
8:53 pm 20:53 Cloudy with Light Rain 54 12 54 12 100 100 ESE 14 22 29.77 1008 8 12.874752 0.02 0.508
9:08 pm 21:08 Cloudy with Light Rain 54 12 54 12 100 100 ESE 15 24 29.77 1008 5 8.04672 0 0
9:53 pm 21:53 Cloudy with Light Rain 54 12 N/A N/A ESE 17 28 29.77 1008 9 14.484096 0.02 0.508
10:13 pm 22:13 Cloudy 54 12 N/A N/A SE 15 24 29.71 1006 10 16.09344 0.001 0.001
10:27 pm 22:27 Cloudy with Haze 54 12 N/A N/A ESE 13 20 29.71 1006 6 9.656064 0.001 0.001
10:29 pm 22:29 Cloudy with Haze 54 12 N/A N/A ESE 15 24 29.71 1006 6 9.656064 0.001 0.001
10:53 pm 22:53 Cloudy with Light Rain 54 12 N/A N/A ESE 16 26 29.71 1006 5 8.04672 0.001 0.001
11:01 pm 23:01 Cloudy with Light Rain 54 12 N/A N/A ESE 16 26 29.71 1006 4 6.437376 0.01 0.254
11:53 pm 23:53 Cloudy 54 12 N/A N/A ESE 14 22 29.68 1005 7 11.265408 0.02 0.508

Powered by AerisWeather